[keps] orb08213.2l.amsat
Ray Hoad
r.hoad at att.net
Thu Jul 31 19:34:16 PDT 2008
SB KEPS @ AMSAT $ORB08213.N
2Line Orbital Elements 08213.AMSAT
HR AMSAT ORBITAL ELEMENTS FOR AMATEUR SATELLITES IN NASA FORMAT
FROM WA5QGD FORT WORTH,TX July 31, 2008
Send Subscribe/unsubscribe to KEPS at
http://www.amsat.org/mailman/listinfo/keps
BID: ORB08213.N
DECODE 2-LINE ELSETS WITH THE FOLLOWING KEY:
1 AAAAAU 00 0 0 BBBBB.BBBBBBBB .CCCCCCCC 00000-0 00000-0 0 DDDZ
2 AAAAA EEE.EEEE FFF.FFFF GGGGGGG HHH.HHHH III.IIII JJ.JJJJJJJJKKKKKZ
KEY: A-CATALOGNUM B-EPOCHTIME C-DECAY D-ELSETNUM E-INCLINATION F-RAAN
G-ECCENTRICITY H-ARGPERIGEE I-MNANOM J-MNMOTION K-ORBITNUM Z-CHECKSUM
TO ALL RADIO AMATEURS BT
AO-07
1 07530U 74089B 08212.62851404 -.00000027 00000-0 10000-3 0 2409
2 07530 101.4629 242.6681 0011732 176.0916 184.0239 12.53573812542424
AO-10
1 14129U 83058B 08211.94988587 -.00000229 00000-0 10000-3 0 05377
2 14129 026.0102 203.1067 5973370 144.3184 276.5106 02.05869982188988
UO-11
1 14781U 84021B 08212.80331150 .00000024 00000-0 10490-4 0 7329
2 14781 098.1524 247.4829 0008245 297.7726 062.2642 14.79655298310302
RS-15
1 23439U 94085A 08212.82748336 -.00000039 00000-0 10000-3 0 01822
2 23439 064.8153 064.4775 0147114 114.3857 247.2500 11.27552623559889
FO-29
1 24278U 96046B 08213.79001791 -.00000023 00000-0 93115-5 0 8276
2 24278 098.5831 124.2408 0351372 100.1014 263.9949 13.52938469590420
SO-33
1 25509U 98061B 08212.73753080 .00000042 00000-0 -19354-5 0 2538
2 25509 031.4314 070.0993 0354194 047.9894 315.0330 14.28218629509848
AO-40
1 26609U 00072B 08211.80047665 -.00000289 00000-0 10000-3 0 00973
2 26609 007.6455 069.4909 7924723 106.6070 344.8419 01.25583268035576
VO-52
1 28650U 05017B 08213.71340156 .00000024 00000-0 97391-5 0 9940
2 28650 097.7867 279.0962 0027259 358.0440 002.0637 14.81486181175194
PO-63
1 29712U 07001D 08213.77206681 .00000351 00000-0 52928-4 0 6671
2 29712 097.8725 271.1167 0013028 234.9850 125.0126 14.80225464 84062
AO-16
1 20439U 90005D 08213.51619457 .00000003 00000-0 16287-4 0 3821
2 20439 098.2332 191.3194 0011889 047.7558 312.4638 14.31799278967266
LO-19
1 20442U 90005G 08213.55615528 .00000101 00000-0 52526-4 0 3076
2 20442 098.2035 199.7591 0012649 045.9676 314.2556 14.32037816967420
AO-27
1 22825U 93061C 08212.88528184 -.00000101 00000-0 -23159-4 0 00309
2 22825 098.3861 171.2747 0009156 127.8072 232.3921 14.29243280774019
IO-26
1 22826U 93061D 08212.51175627 .00000006 00000-0 18748-4 0 07374
2 22826 098.3797 171.8053 0009548 125.0172 235.1908 14.29493011774059
PO-28
1 22829U 93061G 08212.82686759 .00000020 00000-0 23839-4 0 22
2 22829 098.3670 173.2047 0010629 098.0956 262.1425 14.30193917774364
GO-32
1 25397U 98043D 08213.82581299 -.00000050 00000-0 -38364-5 0 6609
2 25397 098.3618 246.7785 0002222 099.8864 260.2532 14.23146149522569
NO-44
1 26931U 01043C 08213.36303759 -.00000117 00000-0 -13386-4 0 9401
2 26931 067.0511 170.8522 0007341 269.0984 090.9258 14.29529078356724
SO-50
1 27607U 02058C 08213.66115028 -.00000064 00000-0 12475-4 0 6654
2 27607 064.5592 278.5716 0086377 270.6969 088.4241 14.71370676301510
CO-55
1 27844U 03031E 08212.54182104 .00000021 00000-0 29912-4 0 03635
2 27844 098.7160 220.2056 0010204 357.3868 002.7256 14.20589724263591
CO-57
1 27848U 03031J 08213.53194110 .00000006 00000-0 23113-4 0 3134
2 27848 098.7168 220.2709 0010139 357.6129 002.5001 14.20398313263709
AO-51
1 28375U 04025K 08212.80578132 -.00000006 00000-0 10968-4 0 1619
2 28375 098.0688 234.9186 0085207 020.9024 339.5609 14.40614412214681
CO-56
1 28941U 06005C 08213.77244585 .00015108 26329-5 11230-3 0 2468
2 28941 098.1112 330.6536 0159797 238.5881 119.9649 15.58542963136981
CP4
1 31122U 07012F 08213.72039777 .00000551 00000-0 13192-3 0 4002
2 31122 098.0404 277.6572 0085560 189.5971 170.3537 14.55147458 68550
CP3
1 31128U 07012M 08213.64630657 -.00000047 00000-0 00000 0 0 3946
2 31128 098.0363 275.1994 0102606 196.7516 163.0298 14.51963499 68388
NOAA-10
1 16969U 86073A 08212.96652190 -.00000080 00000-0 -14318-4 0 02260
2 16969 098.7219 234.8455 0013236 055.3397 304.9038 14.27364319137689
NOAA-11
1 19531U 88089A 08212.80017913 .00000225 00000-0 13942-3 0 02561
2 19531 098.7981 301.5181 0010935 306.8035 053.2140 14.14874759024073
NOAA-12
1 21263U 91032A 08212.92943773 -.00000002 00000-0 18086-4 0 07860
2 21263 098.7678 214.8769 0012883 003.5244 356.6023 14.25540091894623
MET-3/5
1 21655U 91056A 08212.95145962 .00000051 00000-0 10000-3 0 04843
2 21655 082.5539 073.4665 0012189 265.8905 094.0824 13.17016520815344
MET-2/21
1 22782U 93055A 08212.95954659 -.00000031 00000-0 -41963-4 0 02129
2 22782 082.5459 076.8546 0022703 163.7152 196.4739 13.83629769753188
OKEAN-4
1 23317U 94066A 08212.79020165 .00000010 00000-0 -17022-5 0 06552
2 23317 082.5390 274.3847 0021894 348.5843 011.4874 14.82625229744741
NOAA-14
1 23455U 94089A 08212.79051819 -.00000347 00000-0 -15986-3 0 02443
2 23455 098.9445 285.0545 0009888 026.7086 333.4585 14.13744154700519
SICH-1
1 23657U 95046A 08213.78954491 -.00000055 00000-0 -99629-5 0 4535
2 23657 082.5261 054.4419 0023572 337.7653 022.2523 14.81593740696828
NOAA-15
1 25338U 98030A 08212.82950929 -.00000028 00000-0 63953-5 0 05637
2 25338 098.5565 203.5828 0009443 276.5445 083.4607 14.24716946531014
RESURS
1 25394U 98043A 08212.73836740 -.00000004 00000-0 16131-4 0 9865
2 25394 098.3827 254.7064 0002481 069.6041 290.5404 14.24165996522641
FENGYUN1
1 25730U 99025A 08212.98282812 .00000702 00000-0 43896-3 0 05331
2 25730 098.7223 187.2832 0022386 047.1799 313.1247 14.07740744475127
OKEAN-0
1 25860U 99039A 08212.71191940 .00000029 00000-0 11646-4 0 04332
2 25860 097.7523 201.3380 0001661 091.3388 268.7999 14.73530507485809
NOAA-16
1 26536U 00055A 08212.84226713 -.00000208 00000-0 -87410-4 0 00333
2 26536 099.1581 202.9799 0011481 100.9030 259.3433 14.12490155404934
NOAA-17
1 27453U 02032A 08212.75738764 -.00000027 00000-0 67182-5 0 00280
2 27453 098.5319 276.1169 0011482 346.5085 013.5760 14.23990962317005
NOAA-18
1 28654U 05018A 08212.79954960 -.00000010 00000-0 18928-4 0 05249
2 28654 098.8670 153.1964 0013938 186.5504 173.5473 14.11181516164625
HUBBLE
1 20580U 90037B 08212.91334726 .00000281 00000-0 88791-5 0 01904
2 20580 028.4688 038.0284 0003778 130.6269 229.4651 15.00396007801559
PO-34
1 25520U 98064B 08212.47934729 .00000335 00000-0 67247-5 0 00521
2 25520 028.4601 248.9373 0005125 038.9714 321.1250 15.17214038539742
ISS
1 25544U 98067A 08212.83484381 .00006537 00000-0 51827-4 0 09552
2 25544 051.6415 152.0335 0010007 014.7331 090.0878 15.72736755555409
CO-58
1 28895U 05043F 08213.74568765 .00000177 00000-0 46800-4 0 837
2 28895 098.0952 106.6908 0016670 270.4317 089.5011 14.59686459146980
NCUBE2
1 28897U 05043H 08212.26564224 .00000065 00000-0 23151-4 0 06141
2 28897 098.0909 105.1714 0016248 278.2018 081.7330 14.59857681139053
FCAL
1 29667U 06055J 08146.34060426 .11864717 12752-4 73624-4 0 9790
2 29667 051.6107 065.3702 0009039 260.8350 099.5042 16.53464210 82911
FALCON
1 30776U 07006E 08212.55260197 .00000185 00000-0 16501-4 0 03775
2 30776 035.4346 250.4874 0001617 355.6568 004.4134 15.03026172076672
MAST
1 31126U 07012K 08212.61257114 .00000001 00000-0 10912-4 0 3872
2 31126 098.0357 275.3065 0094294 196.8104 162.9985 14.53436967 68329
CAPE1
1 31130U 07012P 08213.91625508 -.00000062 00000-0 -33462-5 0 3670
2 31130 098.0362 275.4650 0102597 195.7734 164.0250 14.51979930 68210
CUTE1-7
1 32785U 08021C 08211.40323307 .00000151 00000-0 26244-4 0 01160
2 32785 097.9899 271.2163 0015420 003.5932 356.5394 14.81379341013655
COMPASS
1 32787U 08021E 08213.76394356 .00000124 00000-0 22721-4 0 1071
2 32787 097.9867 273.5239 0016105 357.1935 002.9186 14.81440740 14006
AAUSAT2
1 32788U 08021F 08212.81149646 .00000325 00000-0 48278-4 0 01097
2 32788 097.9875 272.5893 0015579 003.8083 356.3240 14.81550423013864
DO-64
1 32789U 08021G 08212.68423374 .00000449 00000-0 64134-4 0 01182
2 32789 097.9904 272.4819 0015923 000.5833 359.5383 14.81439942013848
SEEDS
1 32791U 08021J 08213.77289472 .00000007 00000-0 78467-5 0 1056
2 32791 097.9886 273.5472 0016468 355.3867 004.7190 14.81297097 13972
CANX-2
1 32797U 08021L 08213.63232793 .00000133 00000-0 17053-4 0 558
2 32797 097.9887 273.4338 0015817 356.6248 003.5362 14.81373642 12667
RS-30
1 32953U 08025A 08212.79399208 .00000010 00000-0 00000-0 0 00720
2 32953 082.5009 096.4771 0018728 156.3762 203.8181 12.42996831008464
/EX
More information about the Keps
mailing list